Погода Туапсе

Хотите узнать прогноз погоды Туапсе? Тогда Вам сюда: Погода Туапсе

Поиск расширенной информации на нашем сайте:

Полезная информация:

Новости сайта



02.01.2020
Опубликован Долгосрочный прогноз погоды по городам России и ближнего зарубежья на январь 2020 года.
Карты: Прогноз на январь и февраль 2020 года, Сравнение прогнозируемой аномалии приземной температуры воздуха на январь 2020 года по разным моделям.




Погода Туапсе - сегодня

Время (UTC), дата Ветер
(°,м/с) 
Видим.   Явления Облачность Т
(°С)
Тd
(°С)
f(%) Тe
(°С)
Pmin
(гПа)
dP
(гПа)
Po
(мм)
O2
(г/м3)
Тmin Tmax R s Состояние
почвы
15 02.07.20 270 (З) 20000 м    3/3 1000 м верхняя 
[Cu med, cong|Ci sp]
+29 +22.1 66 +53  1009.2  -1.4  752  268    +31.5       
18 02.07.20 360 (С) 10 км    8/3 1000 м верхняя 
[Cu med, cong|Ci sp]
+28.8 +17.6 51 +42  1008.9  -0.3  752  270           
21 02.07.20 120 (ЮВ) 10 км    4/0 верхняя 
[Ci sp]
+25.8 +21.1 75 +47  1009.3  0.3  752  271           
00 03.07.20 100 (В) 10 км    3/0 верхняя 
[Ci sp]
+25 +21.1 79 +46  1010  0.7  752  272           
03 03.07.20 060 (СВ) 20000 м    ясно 
+24.2 +18.9 72 +40  1010.2  0.2  752  274  +22.7        сухая 
06 03.07.20 тихо ()   20000 м    ясно 
+29.7 +20.2 57 +49  1010.1  752  269           
09 03.07.20 230 (ЮЗ) 20000 м    ясно 
+31.2 +21.8 57 +54  1010  -0.1  752  267           
12 03.07.20 260 (З) 20000 м    ясно 
+32.8 +18.1 42 +47  1009.1  -0.8  752  266           
15 03.07.20 250 (З) 20000 м    1/1 1000 м 
[Sc]
+29.9 +18.7 51 +46  1008.2  -1  751  268    +33.6       
18 03.07.20 тихо ()   10 км    ясно 
+26.6 +16.7 55 +38  1008.9  0.6  751  272           
21 03.07.20 тихо ()   10 км    ясно 
+24.9 +17.6 64 +38  1008.8  -0.1  751  274           
00 04.07.20 020 (С) 10 км    ясно 
+22.8 +17.7 73 +36  1009.3  0.4  752  276           
03 04.07.20 040 (СВ) н/о    н/о 
+22.8 +18.3 76 +38  1009.8  0.5  752  275  +22.2         
06 04.07.20 тихо ()   20000 м    ясно 
+30.1 +19.4 53 +47  1009.8  0.2  752  268           
09 04.07.20 240 (ЮЗ) 20000 м    ясно 
+31.5 +21.1 54 +53  1010.1  0.3  752  267           
12 04.07.20 220 (ЮЗ) 20000 м    1/1 1000 м 
[Cu hum]
+33.3 +20.9 48 +54  1009  -1  752  265           
15 04.07.20 тихо ()   20000 м    ясно 
+30.2 +20.3 55 +50  1007.6  -1.5  751  267    +33.5       
18 04.07.20 тихо ()   10 км    ясно 
+26.5 +21.7 75 +49  1008  0.3  751  270           
21 04.07.20 тихо ()   10 км    3/3 1000 м 
[Sc]
+25.9 +22.6 82 +51  1009.2  1.2  752  271           
00 05.07.20 тихо ()   10 км    4/1 1000 м верхняя 
[Sc|Ci fib]
+25.2 +22.1 83 +49  1009.2  752  272           
03 05.07.20 тихо ()   20000 м    1/1 1000 м 
[Sc]
+24.8 +21.1 80 +46  1008.9  -0.3  751  272  +23.9        сухая 
06 05.07.20 240 (ЮЗ) 20000 м    1/1 1000 м 
[Cu hum]
+29.5 +22.1 64 +53  1008.7  -0.1  751  268           
09 05.07.20 220 (ЮЗ) 20000 м    1/1 1000 м 
[Cu hum]
+30.6 +21.7 59 +53  1008.5  -0.2  751  267           
12 05.07.20 250 (З) 20000 м    1/1 1000 м 
[Cu hum]
+31.3 +22.2 59 +55  1007.5  -0.9  751  266           
15 05.07.20 230 (ЮЗ) 20000 м    3/1 1000 м средняя 
[Cu hum|Ac trans]
+29.6 +23 68 +56  1007.2  -0.4  750  267    +32.8       
Время (UTC), дата Ветер
(°,м/с) 
Видим.   Явления Облачность Т
(°С)
Тd
(°С)
f(%) Тe
(°С)
Pmin
(гПа)
dP
(гПа)
Po
(мм)
O2
(г/м3)
Тmin Tmax R s Состояние
почвы

Для получения пояснительной информации подведите курсор к названию столбца.

ПОГОДА Туапсе - архив

Всё, что Вы хотите узнать о погоде Туапсе - удобно и подробно!

Выберите нужную дату (начиная с 1 января 2019* года) и нажмите кнопку "Найти".
Будут отображены архивные сводки погоды по пункту Туапсе, начиная с указанной даты.


Отображать данные в формате CSV (для использования в таблицах Excel)


Внимание! Наш архив погоды предназначен исключительно для личного некоммерческого использования в познавательных целях. Если Вам необходимы официальные справки о состоянии погоды (для производственных, юридических, коммерческих и т.п. целей), обращайтесь в органы Росгидромета.

*Примечание: данная дата относится к архиву по метеостанциям СССР (Россия, СНГ, Балтия).
Архив по метеостанциям Зарубежной Европы и Азии (кроме Китая) хранится 10 дней, по другим регионам земного шара (Китай, Африка, Америка, Австралия, Океания) - 1 день.

Туапсе - район местоположения метеостанции


Название, широта, долгота, высота метеостанции:
Туапсе 44.1°ш. 39.1°д. 61 м над ур. моря [Российская Федерация]

Дополнительная информация

В oтличие oт бoльшинства пoгoдных сайтoв мы публикуем пoдрoбную метеoинфoрмацию в детальнoм прoфессиoнальнoм фoрмате.

Характеристики температуры и влажнoсти вoздуха измеряются на высoте 2 м в тени вдали oт зданий и деревьев.
Скoрoсть ветра измеряется на высoте 10 м (на урoвне рoста челoвека скoрoсть ветра ниже в 1.5-2 раза). Если метеoстанция нахoдится в гoрoде или в лесу, тo скoрoсть ветра занижена на 2-4 м/с пo сравнению с oткрытым местoм. Скoрoсть ветра над акватoриями крупных рек и oзёр, а также на вершинах хoлмoв на 2-5 м/с выше, чем в oбычных услoвиях.
Атмoсфернoе давление в разных тoчках местнoсти мoжет значительнo oтличаться oт давления на метеoстанции, в зависимoсти oт услoвий рельефа (при пoдъёме на 10 м давление пoнижается примернo на 1 мм рт.ст.).